4XHSC LLRS-LLRS

Flight info

Callsign 4XHSC
Flight time 0h 34m
Altitude 800
Route LSA ROUTES
Aircraft EV97/L-V/N

Departure

Time 2026-04-26 19:35
Airport Rishon Lezion Airfield (LLRS)

Arrival

Time 2026-04-26 20:10
Airport Rishon Lezion Airfield (LLRS)
Time Latitude Longitude Altitude Speed Heading
2026-04-26 19:25 31.96926 34.75301 70 ft 0 kts 91°
2026-04-26 19:27 31.96926 34.75305 70 ft 3 kts 92°
2026-04-26 19:27 31.96924 34.75326 67 ft 3 kts 79°
2026-04-26 19:28 31.96922 34.75339 70 ft 3 kts 171°
2026-04-26 19:28 31.96855 34.75334 70 ft 14 kts 182°
2026-04-26 19:28 31.96754 34.75336 68 ft 15 kts 181°
2026-04-26 19:29 31.96647 34.75334 67 ft 16 kts 175°
2026-04-26 19:29 31.96538 34.75335 70 ft 16 kts 180°
2026-04-26 19:29 31.96424 34.75336 68 ft 17 kts 181°
2026-04-26 19:29 31.96347 34.75335 65 ft 0 kts 175°
2026-04-26 19:30 31.96340 34.75338 68 ft 1 kts 106°
2026-04-26 19:31 31.96338 34.75355 67 ft 7 kts 91°
2026-04-26 19:31 31.96343 34.75359 69 ft 0 kts 12°
2026-04-26 19:31 31.96351 34.75359 67 ft 6 kts 357°
2026-04-26 19:32 31.96574 34.75358 71 ft 56 kts 357°
2026-04-26 19:32 31.96944 34.75168 186 ft 69 kts 293°
2026-04-26 19:32 31.96796 34.74602 276 ft 86 kts 219°
2026-04-26 19:32 31.96200 34.74415 383 ft 93 kts 191°
2026-04-26 19:33 31.95541 34.74291 394 ft 97 kts 190°
2026-04-26 19:33 31.94867 34.74281 401 ft 99 kts 165°
2026-04-26 19:33 31.94247 34.74623 417 ft 99 kts 144°
2026-04-26 19:33 31.93732 34.75165 441 ft 98 kts 138°
2026-04-26 19:34 31.93220 34.75700 439 ft 100 kts 136°
2026-04-26 19:34 31.92936 34.76428 417 ft 99 kts 97°
2026-04-26 19:34 31.92780 34.77211 412 ft 100 kts 129°
2026-04-26 19:34 31.92176 34.77583 364 ft 101 kts 122°
2026-04-26 19:35 31.92097 34.78374 378 ft 97 kts 91°
2026-04-26 19:35 31.92069 34.79167 427 ft 96 kts 92°
2026-04-26 19:35 31.92037 34.79926 586 ft 94 kts 92°
2026-04-26 19:35 31.92003 34.80685 742 ft 92 kts 87°
2026-04-26 19:36 31.92174 34.81423 820 ft 96 kts 71°
2026-04-26 19:36 31.92262 34.81927 830 ft 95 kts 88°
2026-04-26 19:36 31.92146 34.82951 832 ft 94 kts 103°
2026-04-26 19:36 31.91955 34.83694 826 ft 95 kts 110°
2026-04-26 19:37 31.91719 34.84407 828 ft 94 kts 111°
2026-04-26 19:37 31.91532 34.85139 837 ft 94 kts 105°
2026-04-26 19:37 31.91355 34.85878 839 ft 94 kts 106°
2026-04-26 19:37 31.91157 34.86605 841 ft 93 kts 105°
2026-04-26 19:38 31.91024 34.87347 847 ft 92 kts 99°
2026-04-26 19:38 31.90957 34.88098 850 ft 93 kts 93°
2026-04-26 19:38 31.90788 34.88815 857 ft 94 kts 128°
2026-04-26 19:38 31.90239 34.89205 786 ft 91 kts 158°
2026-04-26 19:39 31.89648 34.89423 686 ft 88 kts 165°
2026-04-26 19:39 31.89068 34.89636 592 ft 92 kts 154°
2026-04-26 19:39 31.88517 34.90026 605 ft 93 kts 144°
2026-04-26 19:39 31.87974 34.90457 617 ft 94 kts 144°
2026-04-26 19:40 31.87438 34.90889 634 ft 92 kts 142°
2026-04-26 19:40 31.86907 34.91314 685 ft 91 kts 149°
2026-04-26 19:40 31.86306 34.91505 747 ft 91 kts 173°
2026-04-26 19:40 31.85768 34.91791 794 ft 87 kts 121°
2026-04-26 19:41 31.85635 34.92485 832 ft 87 kts 99°
2026-04-26 19:41 31.85509 34.93193 840 ft 89 kts 101°
2026-04-26 19:41 31.85379 34.93912 857 ft 91 kts 103°
2026-04-26 19:41 31.85223 34.94373 858 ft 94 kts 125°
2026-04-26 19:42 31.84623 34.95107 858 ft 94 kts 132°
2026-04-26 19:42 31.84159 34.95645 869 ft 93 kts 135°
2026-04-26 19:42 31.83667 34.96137 870 ft 93 kts 140°
2026-04-26 19:42 31.83160 34.96598 879 ft 92 kts 141°
2026-04-26 19:43 31.82661 34.97048 1012 ft 87 kts 144°
2026-04-26 19:43 31.82173 34.97457 1170 ft 86 kts 141°
2026-04-26 19:43 31.81684 34.97851 1336 ft 84 kts 148°
2026-04-26 19:43 31.81167 34.98157 1509 ft 84 kts 156°
2026-04-26 19:44 31.80639 34.98440 1667 ft 85 kts 143°
2026-04-26 19:44 31.80412 34.99049 1814 ft 85 kts 78°
2026-04-26 19:44 31.80793 34.99509 1986 ft 81 kts 11°
2026-04-26 19:44 31.81264 34.99300 2206 ft 79 kts 302°
2026-04-26 19:45 31.81230 34.98650 2355 ft 85 kts 254°
2026-04-26 19:45 31.81004 34.97976 2421 ft 92 kts 251°
2026-04-26 19:45 31.80762 34.97239 2471 ft 100 kts 252°
2026-04-26 19:45 31.80511 34.96552 2476 ft 79 kts 251°
2026-04-26 19:46 31.80335 34.96051 2561 ft 59 kts 254°
2026-04-26 19:46 31.80201 34.95611 2611 ft 48 kts 259°
2026-04-26 19:46 31.80073 34.95007 2310 ft 93 kts 261°
2026-04-26 19:46 31.79646 34.94595 2175 ft 88 kts 172°
2026-04-26 19:47 31.79607 34.95037 2072 ft 80 kts 21°
2026-04-26 19:47 31.79968 34.94910 1973 ft 93 kts 302°
2026-04-26 19:47 31.79923 34.93916 1918 ft 96 kts 264°
2026-04-26 19:47 31.79847 34.93129 1885 ft 95 kts 270°
2026-04-26 19:48 31.79957 34.92374 1825 ft 95 kts 286°
2026-04-26 19:48 31.80021 34.91595 1697 ft 92 kts 274°
2026-04-26 19:48 31.79864 34.90856 1320 ft 98 kts 248°
2026-04-26 19:48 31.79632 34.90146 1011 ft 87 kts 243°
2026-04-26 19:49 31.79106 34.89929 756 ft 83 kts 153°
2026-04-26 19:49 31.78838 34.90469 599 ft 88 kts 105°
2026-04-26 19:49 31.78731 34.91153 721 ft 79 kts 124°
2026-04-26 19:49 31.78110 34.91164 598 ft 94 kts 192°
2026-04-26 19:50 31.77744 34.91591 697 ft 74 kts 122°
2026-04-26 19:50 31.77274 34.91997 538 ft 95 kts 95°
2026-04-26 19:50 31.76995 34.92610 644 ft 85 kts 137°
2026-04-26 19:50 31.76589 34.93104 768 ft 84 kts 130°
2026-04-26 19:51 31.76212 34.93620 758 ft 77 kts 126°
2026-04-26 19:51 31.76296 34.94083 558 ft 65 kts 12°
2026-04-26 19:51 31.76612 34.93742 530 ft 71 kts 302°
2026-04-26 19:51 31.76848 34.93208 667 ft 79 kts 297°
2026-04-26 19:52 31.77072 34.92590 795 ft 88 kts 294°
2026-04-26 19:52 31.77417 34.91997 800 ft 85 kts 319°
2026-04-26 19:52 31.77847 34.91559 768 ft 81 kts 320°
2026-04-26 19:52 31.78185 34.91120 671 ft 72 kts 310°
2026-04-26 19:53 31.78503 34.90680 568 ft 72 kts 311°
2026-04-26 19:53 31.78827 34.90224 403 ft 70 kts 311°
2026-04-26 19:53 31.79100 34.89842 424 ft 58 kts 310°
2026-04-26 19:53 31.79446 34.89672 523 ft 56 kts 17°
2026-04-26 19:54 31.79636 34.90012 617 ft 55 kts 101°
2026-04-26 19:54 31.79513 34.90549 642 ft 81 kts 113°
2026-04-26 19:54 31.79154 34.91058 680 ft 79 kts 155°
2026-04-26 19:54 31.78672 34.90889 600 ft 73 kts 238°
2026-04-26 19:55 31.78715 34.90372 453 ft 69 kts 316°
2026-04-26 19:55 31.79009 34.89975 392 ft 59 kts 312°
2026-04-26 19:55 31.79292 34.89610 459 ft 62 kts 339°
2026-04-26 19:55 31.79686 34.89785 573 ft 72 kts 62°
2026-04-26 19:56 31.79658 34.90418 597 ft 79 kts 104°
2026-04-26 19:56 31.79449 34.90985 622 ft 72 kts 130°
2026-04-26 19:56 31.79000 34.91075 649 ft 74 kts 203°
2026-04-26 19:56 31.78632 34.90673 563 ft 74 kts 249°
2026-04-26 19:57 31.78837 34.90202 388 ft 65 kts 310°
2026-04-26 19:57 31.79117 34.89834 402 ft 63 kts 315°
2026-04-26 19:57 31.79366 34.89685 458 ft 61 kts
2026-04-26 19:57 31.79788 34.89754 558 ft 61 kts
2026-04-26 19:58 31.80227 34.89793 661 ft 70 kts
2026-04-26 19:58 31.80725 34.89956 777 ft 79 kts 30°
2026-04-26 19:58 31.81161 34.90377 900 ft 84 kts 46°
2026-04-26 19:58 31.81421 34.90968 989 ft 87 kts 71°
2026-04-26 19:59 31.81839 34.91452 1079 ft 91 kts 23°
2026-04-26 19:59 31.82442 34.91527 1124 ft 90 kts 351°
2026-04-26 19:59 31.83047 34.91354 1175 ft 90 kts 350°
2026-04-26 19:59 31.83671 34.91254 1192 ft 92 kts 355°
2026-04-26 20:00 31.84316 34.91198 1211 ft 93 kts 356°
2026-04-26 20:00 31.84970 34.91098 1215 ft 95 kts 349°
2026-04-26 20:00 31.85615 34.90919 1223 ft 96 kts 346°
2026-04-26 20:00 31.86265 34.90727 1221 ft 96 kts 348°
2026-04-26 20:01 31.86917 34.90543 1217 ft 96 kts 348°
2026-04-26 20:01 31.87570 34.90365 1221 ft 96 kts 348°
2026-04-26 20:01 31.88230 34.90199 1217 ft 97 kts 348°
2026-04-26 20:01 31.88894 34.90030 1212 ft 98 kts 348°
2026-04-26 20:02 31.89558 34.89866 1214 ft 98 kts 348°
2026-04-26 20:02 31.90197 34.89606 1212 ft 98 kts 329°
2026-04-26 20:02 31.90693 34.89061 1205 ft 98 kts 309°
2026-04-26 20:02 31.90948 34.88629 1205 ft 97 kts 300°
2026-04-26 20:03 31.91338 34.87668 1213 ft 96 kts 295°
2026-04-26 20:03 31.91622 34.86957 1222 ft 96 kts 295°
2026-04-26 20:03 31.91866 34.86223 1216 ft 97 kts 290°
2026-04-26 20:03 31.92054 34.85477 1214 ft 96 kts 285°
2026-04-26 20:04 31.92204 34.84711 1215 ft 96 kts 283°
2026-04-26 20:04 31.92404 34.83955 1211 ft 97 kts 295°
2026-04-26 20:04 31.92675 34.83296 1091 ft 83 kts 297°
2026-04-26 20:04 31.92965 34.82685 961 ft 87 kts 308°
2026-04-26 20:05 31.93409 34.82215 878 ft 85 kts 322°
2026-04-26 20:05 31.93886 34.81804 782 ft 85 kts 325°
2026-04-26 20:05 31.94334 34.81342 678 ft 87 kts 312°
2026-04-26 20:05 31.94675 34.80771 602 ft 85 kts 300°
2026-04-26 20:06 31.94911 34.80123 507 ft 86 kts 287°
2026-04-26 20:06 31.95017 34.79435 452 ft 85 kts 280°
2026-04-26 20:06 31.95099 34.78745 414 ft 87 kts 279°
2026-04-26 20:06 31.95176 34.78030 429 ft 88 kts 280°
2026-04-26 20:07 31.95422 34.77376 432 ft 89 kts 311°
2026-04-26 20:07 31.95839 34.76843 443 ft 89 kts 316°
2026-04-26 20:07 31.96274 34.76317 423 ft 91 kts 315°
2026-04-26 20:07 31.96636 34.75710 410 ft 92 kts 291°
2026-04-26 20:08 31.96815 34.74990 410 ft 88 kts 286°
2026-04-26 20:08 31.96581 34.74450 406 ft 78 kts 195°
2026-04-26 20:08 31.96066 34.74349 390 ft 72 kts 191°
2026-04-26 20:08 31.95566 34.74334 360 ft 75 kts 155°
2026-04-26 20:09 31.95352 34.74855 346 ft 74 kts 99°
2026-04-26 20:09 31.95416 34.75383 297 ft 65 kts 39°
2026-04-26 20:09 31.95839 34.75365 233 ft 64 kts 354°
2026-04-26 20:09 31.96281 34.75359 111 ft 64 kts
2026-04-26 20:10 31.96651 34.75358 69 ft 41 kts
2026-04-26 20:10 31.96838 34.75354 71 ft 16 kts
2026-04-26 20:10 31.96918 34.75382 70 ft 7 kts
2026-04-26 20:10 31.96934 34.75382 68 ft 0 kts 357°